This demonstration page uses our WeatherBlox Daily Observations layout. Learn more.

Left ArrowRight Arrow

34.02893, -84.19858

Hourly Observations for February 6, 2017

Temp ( °F °C ) Dew Point ( °F °C ) Humidity (%) Winds ( mph kmh ) Pressure ( in mb ) Visibility ( mi km ) Precip ( " mm )
12:53 am 00:53 Clear with Mist and Fog 41 5 39 3.9 93 93 WSW 5 7 30.20 1023 6 10 0.00 0.00
1:15 am 01:15 Mostly Cloudy 43 6.1 41 5 93 93 W 5 7 30.21 1023 7 11 0.00 0.00
1:36 am 01:36 Cloudy 44 6.7 42 5.6 93 93 W 6 9 30.21 1023 8 13 0.00 0.00
1:53 am 01:53 Cloudy 45 7.2 42 5.6 90 90 W 7 11 30.19 1023 8 13 0.00 0.00
2:53 am 02:53 Cloudy 45 7.2 42 5.6 90 90 WNW 7 11 30.19 1022 8 13 0.00 0.00
3:53 am 03:53 Cloudy 45 7.2 42 5.6 90 90 WNW 5 7 30.18 1022 7 11 0.00 0.00
4:53 am 04:53 Cloudy 44 6.7 41 5 89 89 NNW 5 7 30.17 1022 7 11 0.00 0.00
5:28 am 05:28 Mostly Cloudy with Mist and Fog 45 7 41 5 87 87 NNW 3 6 30.18 1022 6 10 0.00 0.00
5:53 am 05:53 Mostly Clear with Mist and Fog 43 6.1 40 4.4 89 89 W 5 7 30.19 1023 6 10 0.00 0.00
6:53 am 06:53 Mostly Clear with Mist and Fog 43 6.1 40 4.4 89 89 W 5 7 30.21 1023 5 8 0.00 0.00
7:53 am 07:53 Cloudy with Mist and Fog 44 6.7 41 5 89 89 Calm 30.21 1023 3 5 0.00 0.00
8:11 am 08:11 Cloudy with Mist and Fog 45 7.2 42 5.6 90 90 Calm 30.24 1024 3 5 0.00 0.00
8:53 am 08:53 Cloudy with Mist and Fog 46 7.8 42 5.6 86 86 N 5 7 30.22 1023 3 5 0.00 0.00
9:26 am 09:26 Cloudy with Haze 46 8 43 6 87 87 Calm 30.24 1024 4 6 0.00 0.00
9:53 am 09:53 Mostly Cloudy with Haze 48 8.9 42 5.6 80 80 Calm 30.22 1023 4 6 0.00 0.00
10:00 am 10:00 Mostly Cloudy with Haze 48 9 43 6 82 82 Calm 30.24 1024 5 8 0.00 0.00
10:53 am 10:53 Mostly Cloudy with Haze 53 11.7 43 6.1 69 69 Calm 30.22 1023 5 8 0.00 0.00
11:18 am 11:18 Cloudy with Haze 54 12 45 7 72 72 Calm 30.21 1023 6 10 0.00 0.00
11:53 am 11:53 Cloudy with Haze 55 12.8 45 7.2 69 69 Calm 30.21 1023 6 10 0.00 0.00
12:42 pm 12:42 Cloudy 59 15 48 9 68 68 Calm 30.18 1022 8 13 0.00 0.00
12:53 pm 12:53 Cloudy with Light Rain 59 15 48 8.9 67 67 Calm 30.18 1022 7 11 0.00 0.03
1:45 pm 13:45 Cloudy with Light Rain 59 15 50 10 72 72 Calm 30.15 1021 6 10 0.01 0.25
1:53 pm 13:53 Cloudy with Light Rain 59 15 51 10.6 75 75 Calm 30.15 1021 7 11 0.01 0.25
2:10 pm 14:10 Cloudy with Light Rain 58 14.4 51 10.6 78 78 Calm 30.12 1020 6 10 0.00 0.03
2:53 pm 14:53 Cloudy 60 15.6 53 11.7 78 78 Calm 30.12 1020 8 13 0.00 0.03
3:53 pm 15:53 Cloudy 62 16.7 53 11.7 73 73 SE 5 7 30.11 1020 10 16 0.00 0.00
4:53 pm 16:53 Cloudy 63 17.2 53 11.7 70 70 Calm 30.10 1019 10 16 0.00 0.00
5:53 pm 17:53 Cloudy 62 16.7 53 11.7 73 73 Calm 30.11 1020 10 16 0.00 0.00
6:53 pm 18:53 Partly Cloudy 57 13.9 52 11.1 83 83 Calm 30.11 1020 10 16 0.00 0.00
7:53 pm 19:53 Mostly Cloudy 57 13.9 52 11.1 83 83 Calm 30.11 1020 9 14 0.00 0.00
8:53 pm 20:53 Partly Cloudy 54 12.2 50 10 87 87 NNE 3 6 30.11 1020 8 13 0.00 0.00
9:53 pm 21:53 Clear 54 12.2 51 10.6 90 90 Calm 30.11 1020 8 13 0.00 0.00
10:53 pm 22:53 Clear 53 11.7 50 10 89 89 Calm 30.09 1019 7 11 0.00 0.00
11:53 pm 23:53 Clear with Mist and Fog 51 10.6 49 9.4 92 92 Calm 30.08 1019 6 10 0.00 0.00

Powered by AerisWeather